GW4954 Weather Reports


Display with metric or nautical units.
time (UTC)temp
F
wind
direction
speed
MPH
gust
MPH
rain 1hr
in
rain 24hr
in
rain mn
in
humidity
%
barometer
mb
20260510130429 55 332 1.0 3.0 0.00 0.08 0.08 60 1010.9
20260510125926 55 33 2.0 9.0 0.00 0.08 0.08 60 1010.6
20260510125422 55 49 3.0 7.0 0.00 0.08 0.08 60 1010.5
20260510124919 54 54 2.0 4.0 0.00 0.08 0.08 60 1010.5
20260510124416 54 132 6.0 10.0 0.00 0.08 0.08 59 1010.5
20260510123912 54 352 0.0 9.0 0.00 0.08 0.08 61 1010.4
20260510123408 54 218 3.0 7.0 0.00 0.08 0.08 62 1010.3
20260510122905 54 144 2.0 10.0 0.00 0.08 0.08 61 1010.5
20260510122359 54 66 2.0 6.0 0.00 0.08 0.08 63 1010.2
20260510121856 54 84 2.0 4.0 0.00 0.08 0.08 63 1010.2
20260510121354 54 27 2.0 2.0 0.00 0.08 0.08 65 1010.0
20260510120851 54 45 3.0 9.0 0.00 0.08 0.08 65 1010.3
20260510120348 54 9 2.0 3.0 0.00 0.08 0.08 69 1009.9
20260510115849 53 34 2.0 3.0 0.00 0.08 0.08 70 1010.0
20260510115346 53 345 2.0 3.0 0.00 0.08 0.08 70 1010.0
20260510114841 53 282 1.0 4.0 0.00 0.08 0.08 69 1009.9
20260510114339 53 26 1.0 4.0 0.00 0.08 0.08 71 1009.8
20260510113839 53 0 1.0 3.0 0.00 0.08 0.08 72 1009.8
20260510113336 53 156 0.0 2.0 0.00 0.08 0.08 75 1009.9
20260510112832 53 350 3.0 6.0 0.00 0.08 0.08 74 1009.7
20260510112329 53 32 1.0 2.0 0.00 0.08 0.08 76 1009.7
20260510111825 53 329 2.0 4.0 0.00 0.08 0.08 77 1009.6
20260510111322 53 0 1.0 3.0 0.00 0.08 0.08 77 1009.8
20260510110817 53 20 1.0 2.0 0.00 0.08 0.08 78 1009.3
20260510110315 53 21 3.0 4.0 0.00 0.08 0.08 79 1009.4
20260510105810 53 50 2.0 6.0 0.00 0.08 0.08 81 1009.3
20260510105309 52 353 1.0 6.0 0.00 0.08 0.08 83 1009.3
20260510104806 52 3 1.0 3.0 0.00 0.08 0.08 84 1009.2
20260510104304 52 12 1.0 2.0 0.00 0.08 0.08 84 1008.8
20260510103800 52 9 1.0 3.0 0.00 0.08 0.08 84 1008.6
20260510103257 52 33 1.0 6.0 0.00 0.08 0.08 83 1008.6
20260510102758 52 38 1.0 3.0 0.00 0.08 0.08 83 1008.9
20260510102254 52 21 2.0 4.0 0.00 0.08 0.08 83 1008.8
20260510101751 52 347 2.0 4.0 0.00 0.08 0.08 85 1008.7
20260510101250 52 358 1.0 3.0 0.00 0.08 0.08 86 1008.8
20260510100745 52 4 0.0 4.0 0.00 0.08 0.08 86 1008.8
20260510100243 52 15 2.0 2.0 0.00 0.08 0.08 86 1008.8
20260510095738 52 138 2.0 6.0 0.00 0.08 0.08 87 1008.6
20260510095234 52 3 1.0 4.0 0.00 0.08 0.08 87 1008.5
20260510094732 52 15 0.0 2.0 0.00 0.08 0.08 88 1008.3
20260510094228 52 32 0.0 1.0 0.00 0.08 0.08 88 1008.4
20260510093724 52 358 1.0 2.0 0.00 0.08 0.08 88 1008.3
20260510093222 51 10 1.0 1.0 0.00 0.08 0.08 88 1008.3
20260510092718 51 356 1.0 2.0 0.00 0.08 0.08 88 1008.3
20260510092214 51 0 0.0 1.0 0.00 0.08 0.08 88 1008.1
20260510091709 51 19 0.0 3.0 0.00 0.08 0.08 88 1008.1
20260510091206 51 16 0.0 3.0 0.00 0.08 0.08 88 1008.0
20260510090703 51 54 2.0 4.0 0.00 0.08 0.08 88 1007.9
20260510090200 52 12 1.0 2.0 0.00 0.08 0.08 87 1007.9
20260510085655 52 338 2.0 3.0 0.00 0.08 0.08 87 1007.9
20260510085150 52 316 2.0 4.0 0.00 0.08 0.08 87 1007.9
20260510084647 52 23 1.0 3.0 0.00 0.08 0.08 86 1007.7
20260510084143 52 1 1.0 6.0 0.00 0.08 0.08 86 1007.5
20260510083640 52 23 1.0 3.0 0.00 0.08 0.08 86 1007.8
20260510083137 52 30 1.0 2.0 0.00 0.08 0.08 86 1007.7
20260510082633 52 8 2.0 3.0 0.00 0.08 0.08 86 1007.9
20260510082129 52 343 1.0 2.0 0.00 0.08 0.08 86 1007.6
20260510081623 52 357 0.0 2.0 0.00 0.08 0.08 86 1007.7
20260510081119 53 41 1.0 4.0 0.00 0.08 0.08 86 1007.8
20260510080619 52 123 1.0 6.0 0.00 0.08 0.08 86 1007.5
20260510080116 52 8 1.0 6.0 0.00 0.08 0.08 86 1007.7
20260510075614 52 4 2.0 6.0 0.00 0.08 0.08 86 1007.6
20260510075111 52 19 2.0 2.0 0.00 0.08 0.08 86 1007.4
20260510074607 53 31 2.0 4.0 0.00 0.08 0.08 86 1007.5
20260510074103 52 1 2.0 2.0 0.00 0.08 0.08 87 1007.5
20260510073559 52 10 1.0 6.0 0.00 0.08 0.08 87 1007.2
20260510073056 52 325 1.0 1.0 0.00 0.08 0.08 87 1007.2
20260510072553 52 27 1.0 4.0 0.00 0.08 0.08 87 1007.3
20260510072048 52 23 1.0 6.0 0.00 0.08 0.08 88 1007.0
20260510071544 52 33 1.0 4.0 0.00 0.08 0.08 89 1007.4
20260510071043 52 25 1.0 6.0 0.00 0.08 0.08 90 1007.3
20260510070539 51 21 4.0 4.0 0.00 0.08 0.08 90 1007.2
20260510070036 51 10 1.0 4.0 0.00 0.08 0.08 91 1007.2
20260510065533 51 28 1.0 2.0 0.00 0.08 0.08 91 1007.3
20260510065029 51 18 3.0 4.0 0.00 0.08 0.08 92 1007.2
20260510064525 51 16 3.0 4.0 0.00 0.08 0.08 92 1007.2
20260510064022 51 345 2.0 6.0 0.00 0.08 0.08 92 1007.2
20260510063519 51 351 2.0 4.0 0.00 0.08 0.08 92 1007.2
20260510063017 51 65 2.0 3.0 0.00 0.08 0.08 92 1007.1
20260510062512 51 17 1.0 4.0 0.00 0.08 0.08 92 1006.9
20260510062007 51 17 2.0 6.0 0.00 0.08 0.08 92 1007.0
20260510061504 51 5 1.0 2.0 0.00 0.08 0.08 92 1006.8
20260510061001 51 18 2.0 4.0 0.00 0.08 0.08 92 1006.9
20260510060458 51 50 2.0 3.0 0.00 0.08 0.08 92 1007.2
20260510055953 51 359 0.0 3.0 0.07 0.08 0.08 92 1006.6
20260510055449 51 17 1.0 3.0 0.07 0.08 0.08 92 1007.1
20260510054948 51 38 2.0 3.0 0.05 0.07 0.07 92 1007.2
20260510054443 51 39 1.0 3.0 0.07 0.06 0.06 91 1007.3
20260510053938 51 8 2.0 4.0 0.14 0.06 0.06 91 1007.4
20260510053434 51 12 2.0 6.0 0.12 0.05 0.05 91 1007.7
20260510052930 51 8 2.0 3.0 0.12 0.04 0.04 90 1007.5
20260510052426 51 8 2.0 3.0 0.05 0.02 0.02 90 1007.7
20260510051922 51 346 1.0 6.0 0.05 0.02 0.02 90 1007.5
20260510051419 51 13 0.0 4.0 0.07 0.01 0.01 88 1007.5
20260510050915 51 10 1.0 2.0 0.07 0.01 0.01 88 1007.6
20260510050412 52 347 2.0 3.0 0.00 0.00 0.00 87 1007.6
20260510045909 52 59 2.0 4.0 0.00 0.00 0.00 85 1007.4
20260510045406 52 337 4.0 6.0 0.00 0.00 0.00 83 1007.4
20260510044903 52 6 5.0 10.0 0.00 0.00 0.00 83 1007.2
20260510044400 52 14 1.0 7.0 0.00 0.00 0.00 83 1007.3
20260510043856 52 350 3.0 4.0 0.00 0.00 0.00 83 1007.1
20260510043352 52 9 2.0 6.0 0.00 0.00 0.00 83 1007.1
20260510042851 52 20 5.0 8.0 0.00 0.00 0.00 83 1007.1
20260510042346 52 330 2.0 7.0 0.00 0.00 0.00 83 1006.7
20260510041842 52 13 2.0 8.0 0.00 0.00 0.00 83 1006.8
20260510041340 52 12 3.0 6.0 0.00 0.00 0.00 83 1006.8
20260510040837 52 349 4.0 8.0 0.00 0.00 0.00 83 1007.0
20260510040334 52 359 3.0 8.0 0.00 0.00 0.00 83 1006.6
20260510035829 52 12 6.0 9.0 0.00 0.00 0.00 82 1006.7
20260510035325 52 15 1.0 13.0 0.00 0.00 0.00 82 1006.8
20260510034821 52 344 2.0 8.0 0.00 0.00 0.00 82 1006.8
20260510034319 52 9 3.0 9.0 0.00 0.00 0.00 83 1006.8
20260510033815 52 8 4.0 9.0 0.00 0.00 0.00 83 1006.8
20260510033313 52 352 6.0 11.0 0.00 0.00 0.00 83 1007.0
20260510032809 52 52 5.0 8.0 0.00 0.00 0.00 83 1007.0
20260510032306 52 330 3.0 8.0 0.00 0.00 0.00 83 1007.1
20260510031801 52 346 3.0 6.0 0.00 0.00 0.00 84 1006.9
20260510031258 52 28 3.0 8.0 0.00 0.00 0.00 84 1007.2
20260510030756 52 354 6.0 9.0 0.00 0.00 0.00 84 1007.1
20260510030254 52 334 4.0 10.0 0.00 0.00 0.00 84 1007.1
20260510025751 52 348 3.0 7.0 0.00 0.00 0.00 84 1007.3
20260510025249 52 6 2.0 8.0 0.00 0.00 0.00 84 1007.6
20260510024745 52 333 5.0 10.0 0.00 0.00 0.00 83 1007.6
20260510024242 52 345 1.0 6.0 0.00 0.00 0.00 83 1007.6
20260510023738 52 335 4.0 7.0 0.00 0.00 0.00 83 1007.7
20260510023235 52 350 2.0 7.0 0.00 0.00 0.00 82 1007.6
20260510022732 52 16 2.0 11.0 0.00 0.00 0.00 82 1007.6
20260510022231 52 4 2.0 11.0 0.00 0.00 0.00 82 1007.9
20260510021726 52 5 4.0 7.0 0.00 0.00 0.00 82 1007.8
20260510021224 52 348 5.0 7.0 0.00 0.00 0.00 82 1007.9
20260510020719 52 21 4.0 4.0 0.00 0.00 0.00 81 1008.1
20260510020219 52 32 4.0 8.0 0.00 0.00 0.00 81 1008.0
20260510015715 52 39 3.0 9.0 0.00 0.00 0.00 81 1008.0
20260510015212 52 29 5.0 8.0 0.00 0.00 0.00 81 1008.1
20260510014707 52 355 6.0 11.0 0.00 0.00 0.00 81 1008.4
20260510014206 52 36 3.0 8.0 0.00 0.00 0.00 80 1008.4
20260510013706 52 20 4.0 7.0 0.00 0.00 0.00 80 1008.4
20260510013202 52 39 4.0 7.0 0.00 0.00 0.00 79 1008.0
20260510012701 52 22 2.0 9.0 0.00 0.00 0.00 79 1008.2
20260510012157 52 340 5.0 7.0 0.00 0.00 0.00 78 1008.2
20260510011652 52 345 2.0 9.0 0.00 0.00 0.00 78 1008.2
20260510011148 53 38 4.0 9.0 0.00 0.00 0.00 78 1008.2
20260510010644 53 15 3.0 4.0 0.00 0.00 0.00 77 1008.1
20260510010141 53 342 8.0 10.0 0.00 0.00 0.00 77 1008.0
20260510005637 53 351 7.0 10.0 0.00 0.00 0.00 76 1008.1
20260510005134 53 347 6.0 8.0 0.00 0.00 0.00 76 1007.9
20260510004633 53 346 4.0 8.0 0.00 0.00 0.00 75 1008.1
20260510004130 53 10 7.0 13.0 0.00 0.00 0.00 75 1008.1
20260510003627 53 53 6.0 8.0 0.00 0.00 0.00 74 1008.1
20260510003123 53 60 4.0 10.0 0.00 0.00 0.00 74 1008.2
20260510002623 53 46 3.0 8.0 0.00 0.00 0.00 73 1008.3
20260510002120 53 7 4.0 10.0 0.00 0.00 0.00 73 1008.1
20260510001617 54 42 4.0 11.0 0.00 0.00 0.00 72 1008.0
20260510001116 54 12 3.0 7.0 0.00 0.00 0.00 72 1008.1
20260510000616 54 3 5.0 14.0 0.00 0.00 0.00 71 1007.9
20260510000114 54 42 4.0 8.0 0.00 0.00 0.00 71 1007.8
20260509235610 54 15 2.0 8.0 0.00 0.00 0.00 71 1008.0
20260509235107 54 16 5.0 8.0 0.00 0.00 0.00 71 1007.9
20260509234603 54 328 9.0 13.0 0.00 0.00 0.00 70 1008.0
20260509234101 54 9 6.0 10.0 0.00 0.00 0.00 70 1008.1
20260509233558 55 44 5.0 10.0 0.00 0.00 0.00 69 1007.9
20260509233055 55 10 6.0 11.0 0.00 0.00 0.00 68 1007.8
20260509232551 55 346 5.0 8.0 0.00 0.00 0.00 68 1007.8
20260509232049 55 310 5.0 10.0 0.00 0.00 0.00 67 1008.0
20260509231545 56 309 2.0 9.0 0.00 0.00 0.00 66 1008.0
20260509231043 55 23 4.0 8.0 0.00 0.00 0.00 66 1008.0
20260509230539 56 17 6.0 13.0 0.00 0.00 0.00 65 1008.3
20260509230037 56 351 5.0 11.0 0.00 0.00 0.00 65 1008.0
20260509225532 57 22 7.0 11.0 0.00 0.00 0.00 64 1008.5
20260509225027 57 5 4.0 4.0 0.00 0.00 0.00 64 1008.4
20260509224523 57 19 8.0 9.0 0.00 0.00 0.00 63 1008.5
20260509224020 57 340 5.0 9.0 0.00 0.00 0.00 63 1008.6
20260509223517 57 323 7.0 10.0 0.00 0.00 0.00 62 1008.3
20260509223015 57 26 6.0 15.0 0.00 0.00 0.00 62 1008.6
20260509222511 57 352 7.0 10.0 0.00 0.00 0.00 61 1008.4
20260509222006 57 276 6.0 11.0 0.00 0.00 0.00 61 1008.3
20260509221502 57 2 2.0 8.0 0.00 0.00 0.00 61 1008.3
20260509220958 58 330 8.0 13.0 0.00 0.00 0.00 61 1008.4
20260509220455 59 356 6.0 8.0 0.00 0.00 0.00 58 1008.1
20260509215950 59 356 7.0 10.0 0.00 0.00 0.00 56 1008.1
20260509215446 59 357 8.0 10.0 0.00 0.00 0.00 56 1008.2
20260509214944 59 336 4.0 6.0 0.00 0.00 0.00 55 1008.1
20260509214441 60 353 6.0 7.0 0.00 0.00 0.00 53 1008.3
20260509213937 60 353 6.0 7.0 0.00 0.00 0.00 53 1008.4
20260509213433 60 17 6.0 7.0 0.00 0.00 0.00 53 1008.3
20260509212931 60 346 5.0 8.0 0.00 0.00 0.00 52 1008.2
20260509212429 61 1 5.0 11.0 0.00 0.00 0.00 51 1008.5
20260509211924 61 339 5.0 7.0 0.00 0.00 0.00 50 1008.6
20260509211420 61 349 5.0 13.0 0.00 0.00 0.00 50 1008.7
20260509210917 61 62 3.0 4.0 0.00 0.00 0.00 49 1008.5
20260509210414 62 31 6.0 10.0 0.00 0.00 0.00 47 1008.5
20260509205910 62 22 7.0 14.0 0.00 0.00 0.00 44 1008.3
20260509205409 63 34 2.0 4.0 0.00 0.00 0.00 43 1008.3
20260509204906 63 9 6.0 9.0 0.00 0.00 0.00 43 1008.4
20260509204402 63 16 2.0 6.0 0.00 0.00 0.00 42 1008.4
20260509203859 63 10 5.0 9.0 0.00 0.00 0.00 41 1008.2
20260509203355 64 355 5.0 8.0 0.00 0.00 0.00 38 1008.6
20260509202853 63 312 5.0 9.0 0.00 0.00 0.00 38 1008.5
20260509202348 64 24 6.0 10.0 0.00 0.00 0.00 36 1008.7
20260509201843 64 56 6.0 8.0 0.00 0.00 0.00 37 1008.5
20260509201339 63 358 2.0 4.0 0.00 0.00 0.00 35 1008.9
20260509200836 64 358 3.0 6.0 0.00 0.00 0.00 34 1008.9
20260509200331 64 352 6.0 10.0 0.00 0.00 0.00 35 1008.9
20260509195828 64 1 5.0 10.0 0.00 0.00 0.00 34 1008.9
20260509195328 64 351 4.0 8.0 0.00 0.00 0.00 33 1008.9
20260509194828 64 345 2.0 7.0 0.00 0.00 0.00 33 1009.0
20260509194324 64 5 5.0 7.0 0.00 0.00 0.00 32 1009.1
20260509193821 64 49 4.0 11.0 0.00 0.00 0.00 32 1009.1
20260509193321 64 334 6.0 9.0 0.00 0.00 0.00 31 1009.0
20260509192817 66 339 4.0 7.0 0.00 0.00 0.00 30 1009.0
20260509192313 64 358 3.0 4.0 0.00 0.00 0.00 31 1009.0
20260509191808 65 327 3.0 8.0 0.00 0.00 0.00 30 1009.2
20260509191305 65 16 3.0 7.0 0.00 0.00 0.00 29 1009.3
20260509190800 65 34 4.0 13.0 0.00 0.00 0.00 29 1009.4
20260509190258 65 20 4.0 11.0 0.00 0.00 0.00 29 1009.5
20260509185755 65 37 4.0 7.0 0.00 0.00 0.00 29 1009.4
20260509185251 65 17 6.0 8.0 0.00 0.00 0.00 28 1009.4
20260509184749 64 40 2.0 7.0 0.00 0.00 0.00 27 1009.2
20260509184246 64 356 3.0 10.0 0.00 0.00 0.00 27 1009.4
20260509183742 64 2 6.0 8.0 0.00 0.00 0.00 26 1009.4
20260509183237 64 322 4.0 10.0 0.00 0.00 0.00 25 1009.4
20260509182733 64 356 7.0 9.0 0.00 0.00 0.00 25 1009.6
20260509182231 64 22 3.0 4.0 0.00 0.00 0.00 24 1009.6
20260509181729 64 3 5.0 6.0 0.00 0.00 0.00 25 1009.9
20260509181226 64 317 4.0 9.0 0.00 0.00 0.00 25 1009.9
20260509180723 64 45 3.0 7.0 0.00 0.00 0.00 24 1009.9
20260509180219 64 46 2.0 8.0 0.00 0.00 0.00 25 1010.0
20260509175715 64 338 6.0 9.0 0.00 0.00 0.00 24 1010.0
20260509175212 64 10 7.0 10.0 0.00 0.00 0.00 23 1010.3
20260509174707 64 3 3.0 6.0 0.00 0.00 0.00 25 1010.3
20260509174203 64 14 4.0 10.0 0.00 0.00 0.00 25 1010.6
20260509173659 64 50 3.0 6.0 0.00 0.00 0.00 24 1010.4
20260509173155 64 349 3.0 7.0 0.00 0.00 0.00 25 1010.4
20260509172651 64 22 3.0 11.0 0.00 0.00 0.00 26 1010.4
20260509172148 64 11 4.0 7.0 0.00 0.00 0.00 27 1010.4
20260509171643 63 26 4.0 7.0 0.00 0.00 0.00 28 1010.6
20260509171140 64 19 4.0 8.0 0.00 0.00 0.00 27 1010.9
20260509170636 65 325 2.0 3.0 0.00 0.00 0.00 27 1011.0
20260509170133 64 25 3.0 4.0 0.00 0.00 0.00 27 1010.8
20260509165631 65 351 6.0 9.0 0.00 0.00 0.00 27 1011.1
20260509165127 64 36 2.0 3.0 0.00 0.00 0.00 28 1011.2
20260509164623 63 22 4.0 6.0 0.00 0.00 0.00 29 1011.1
20260509164119 63 345 3.0 4.0 0.00 0.00 0.00 27 1011.1
20260509163617 63 338 6.0 7.0 0.00 0.00 0.00 27 1011.3
20260509163112 63 352 4.0 7.0 0.00 0.00 0.00 28 1011.3
20260509162610 63 347 4.0 6.0 0.00 0.00 0.00 28 1011.6
20260509162105 63 11 4.0 8.0 0.00 0.00 0.00 28 1011.4
20260509161602 62 9 3.0 4.0 0.00 0.00 0.00 29 1011.5
20260509161102 62 357 7.0 9.0 0.00 0.00 0.00 29 1011.8
20260509160558 62 50 6.0 10.0 0.00 0.00 0.00 30 1011.6
20260509160054 61 331 2.0 3.0 0.00 0.00 0.00 31 1011.8
20260509155550 62 7 2.0 6.0 0.00 0.00 0.00 32 1012.0
20260509155047 60 13 4.0 6.0 0.00 0.00 0.00 31 1012.1
20260509154537 60 357 2.0 7.0 0.00 0.00 0.00 31 1012.0
20260509154035 60 13 3.0 9.0 0.00 0.00 0.00 32 1012.1
20260509153531 60 325 4.0 7.0 0.00 0.00 0.00 32 1012.2
20260509153028 60 10 4.0 7.0 0.00 0.00 0.00 33 1012.2
20260509152524 59 45 4.0 9.0 0.00 0.00 0.00 33 1012.4
20260509152021 60 11 4.0 7.0 0.00 0.00 0.00 34 1012.7
20260509151517 59 354 5.0 9.0 0.00 0.00 0.00 35 1012.5
20260509151015 59 353 6.0 7.0 0.00 0.00 0.00 36 1012.4
20260509150512 59 5 4.0 7.0 0.00 0.00 0.00 36 1012.7
20260509150011 59 16 1.0 4.0 0.00 0.00 0.00 36 1012.7
20260509145506 59 25 2.0 8.0 0.00 0.00 0.00 36 1012.5
20260509145001 59 13 3.0 6.0 0.00 0.00 0.00 37 1012.6
20260509144459 59 39 2.0 4.0 0.00 0.00 0.00 36 1012.7
20260509143956 59 20 0.0 3.0 0.00 0.00 0.00 38 1012.6
20260509143453 58 22 2.0 4.0 0.00 0.00 0.00 38 1012.7
20260509142949 58 3 3.0 6.0 0.00 0.00 0.00 40 1012.7
20260509142446 57 22 2.0 3.0 0.00 0.00 0.00 39 1012.5
20260509141941 57 350 3.0 7.0 0.00 0.00 0.00 39 1012.6
20260509141438 57 353 2.0 7.0 0.00 0.00 0.00 40 1012.8
20260509140935 57 12 1.0 3.0 0.00 0.00 0.00 41 1012.7
20260509140431 56 20 2.0 3.0 0.00 0.00 0.00 39 1012.7
20260509135930 56 341 4.0 4.0 0.00 0.00 0.00 41 1012.8
20260509135427 55 14 3.0 7.0 0.00 0.00 0.00 41 1012.9
20260509134924 55 29 2.0 6.0 0.00 0.00 0.00 41 1012.7
20260509134421 55 348 1.0 6.0 0.00 0.00 0.00 42 1012.8
20260509133919 55 341 1.0 4.0 0.00 0.00 0.00 43 1012.7
20260509133415 55 7 2.0 4.0 0.00 0.00 0.00 42 1012.9
20260509132914 54 347 2.0 4.0 0.00 0.00 0.00 43 1013.1
20260509132411 54 345 2.0 4.0 0.00 0.00 0.00 42 1012.9
20260509131908 54 2 5.0 7.0 0.00 0.00 0.00 42 1013.0
20260509131405 53 352 4.0 6.0 0.00 0.00 0.00 45 1013.2
20260509130902 53 337 4.0 7.0 0.00 0.00 0.00 44 1013.1